(262149) = 1991 VR8 = 2006 SB75

Discovered at Kitt Peak on 2006-09-19 by Spacewatch.

Orbit

Orbit type: Main Belt

Note: WebGL enabled browser required.

epoch2024-03-31.0
epoch JD2460400.5
perihelion date2025-08-29.92911
perihelion JD2460917.42911
argument of perihelion (°)312.01314
ascending node (°)78.81472
inclination (°)2.43619
eccentricity0.1879265
perihelion distance (AU)1.9662548
Tisserand w.r.t. Jupiter3.5
ΔV w.r.t. Earth (km/sec)8.8
semimajor axis (AU)2.4212768
mean anomaly (°)224.77152
mean daily motion (°/day)0.26159970
aphelion distance (AU)2.876
period (years)3.77
P-vector [x]0.85805197
P-vector [y]0.48285558
P-vector [z]0.17492084
Q-vector [x]-0.51186715
Q-vector [y]0.77642734
Q-vector [z]0.36763107
absolute magnitude17.3
phase slope0.15
uncertainty0
referenceMPEC 2024-C107
observations used409
oppositions15
arc length (days)11486
first opposition used1991
last opposition used2023
residual rms (arc-secs)0.72
perturbers coarse indicatorM-v
perturbers precise indicator003Ek
first observation date used1991-11-04.0
last observation date used2023-04-16.0
computer nameMPCLINUX
JD of orbit computation2456966.917991
perihelion JD uncertainty (days)5.3873E-05
argument of perihelion uncertainty (°)1.0042E-04
ascending node uncertainty (°)9.9059E-05
inclination uncertainty (°)4.7487E-06
eccentricity uncertainty 4.4197E-08
perihelion distance uncertainty (AU)1.0717E-07
Minimum Orbit Intersection Distances (in AU)
for orbit epoch: 2460400.5, reference: E2024-FB1
Mercury1.6343
Venus1.24205
Earth0.973
Mars0.50999
Jupiter2.55598
Saturn6.68705
Uranus15.6678
Neptune27.7845

Observations

417 total observations over interval: 1991 11 04.21814 – 2023 04 16.270887
These data are available for download (format description).

Date (UT) J2000 RA J2000 Dec Magn Location Ref
1991 11 04.21814 02 46 39.31 +13 00 20.4 19.6 V 691 – Steward Observatory, Kitt Peak-Spacewatch MPC 20231
1991 11 04.24073 02 46 37.97 +13 00 17.0   691 – Steward Observatory, Kitt Peak-Spacewatch MPC 20231
1991 11 04.26315 02 46 36.58 +13 00 13.2   691 – Steward Observatory, Kitt Peak-Spacewatch MPC 20231
1991 11 05.30701 02 45 36.41 +12 57 26.7   691 – Steward Observatory, Kitt Peak-Spacewatch MPC 20231
1991 11 05.32403 02 45 35.39 +12 57 23.4 19.6 V 691 – Steward Observatory, Kitt Peak-Spacewatch MPC 20231
1991 11 05.34478 02 45 34.12 +12 57 20.2   691 – Steward Observatory, Kitt Peak-Spacewatch MPC 20231
2002 08 29.42726 22 40 23.34 -13 19 00.7 19.4   644 – Palomar Mountain/NEAT MPS 182550
2002 08 29.43722 22 40 22.79 -13 19 04.1 19.2   644 – Palomar Mountain/NEAT MPS 182550
2002 08 29.44710 22 40 22.22 -13 19 07.3 19.5   644 – Palomar Mountain/NEAT MPS 182550
2004 03 17.12276 10 07 30.90 +15 28 34.5 21.8 V 691 – Steward Observatory, Kitt Peak-Spacewatch MPS 198181
2004 03 17.15282 10 07 29.58 +15 28 40.0 21.6 V 691 – Steward Observatory, Kitt Peak-Spacewatch MPS 198181
2004 03 17.18175 10 07 28.31 +15 28 45.3 21.8 V 691 – Steward Observatory, Kitt Peak-Spacewatch MPS 198181
2006 09 19.42889 02 04 52.08 +08 21 36.6 19.8 V 691 – Steward Observatory, Kitt Peak-Spacewatch MPS 181304
2006 09 19.44622 02 04 51.79 +08 21 34.3 19.9 V 691 – Steward Observatory, Kitt Peak-Spacewatch MPS 181304
2006 09 19.46356 02 04 51.51 +08 21 32.4 19.9 V 691 – Steward Observatory, Kitt Peak-Spacewatch MPS 181304
2006 09 23.45369 02 03 40.18 +08 12 59.7 19.9 V 691 – Steward Observatory, Kitt Peak-Spacewatch MPS 181304
2006 09 23.47106 02 03 39.75 +08 12 57.2 20.0 V 691 – Steward Observatory, Kitt Peak-Spacewatch MPS 181304
2006 09 23.48843 02 03 39.27 +08 12 54.4 20.8 V 691 – Steward Observatory, Kitt Peak-Spacewatch MPS 181304
2006 09 27.42658 02 01 58.18 +08 02 26.8 19.7 V 691 – Steward Observatory, Kitt Peak-Spacewatch MPS 181304
2006 09 27.44397 02 01 57.62 +08 02 23.7 19.7 V 691 – Steward Observatory, Kitt Peak-Spacewatch MPS 181304
2006 09 27.46137 02 01 57.07 +08 02 20.8 19.8 V 691 – Steward Observatory, Kitt Peak-Spacewatch MPS 181304
2006 09 30.29380 02 00 26.89 +07 53 43.8 19.4 V 703 – Catalina Sky Survey MPS 182875
2006 09 30.30317 02 00 26.56 +07 53 41.8 19.1 V 703 – Catalina Sky Survey MPS 182875
2006 09 30.31262 02 00 26.20 +07 53 39.3 19.2 V 703 – Catalina Sky Survey MPS 182875
2006 09 30.32204 02 00 25.84 +07 53 39.2 19.1 V 703 – Catalina Sky Survey MPS 182875
2006 10 15.37440 01 49 11.60 +06 58 15.6 18.9 V 703 – Catalina Sky Survey MPS 183058
2006 10 15.38077 01 49 11.31 +06 58 14.4 18.8 V 703 – Catalina Sky Survey MPS 183058
2006 10 15.38716 01 49 10.84 +06 58 13.2 19.4 V 703 – Catalina Sky Survey MPS 183058
2006 10 15.39353 01 49 10.56 +06 58 10.8 18.7 V 703 – Catalina Sky Survey MPS 183058
2006 10 19.37991 01 45 38.54 +06 42 45.5 20.0 R 644 – Palomar Mountain/NEAT MPS 184150
2006 10 19.40051 01 45 37.37 +06 42 40.7 19.1 R 644 – Palomar Mountain/NEAT MPS 184150
2006 10 19.42074 01 45 36.21 +06 42 35.2 19.4 R 644 – Palomar Mountain/NEAT MPS 184150
2006 10 20.26059 01 44 51.45 +06 39 25.1 18.7 R 644 – Palomar Mountain/NEAT MPS 185540
2006 10 20.26177 01 44 51.39 +06 39 24.7 18.9 R 644 – Palomar Mountain/NEAT MPS 185540
2006 10 20.28090 01 44 50.33 +06 39 20.2 19.1 R 644 – Palomar Mountain/NEAT MPS 185540
2006 10 20.28208 01 44 50.23 +06 39 19.9 19.0 R 644 – Palomar Mountain/NEAT MPS 185540
2006 10 20.30120 01 44 49.13 +06 39 15.6 18.7 R 644 – Palomar Mountain/NEAT MPS 185540
2006 10 20.30240 01 44 49.08 +06 39 15.4 18.6 R 644 – Palomar Mountain/NEAT MPS 185540
2006 10 21.23623 01 43 58.80 +06 35 45.7 18.9 V 703 – Catalina Sky Survey MPS 184150
2006 10 21.24479 01 43 58.33 +06 35 44.1 18.6 V 703 – Catalina Sky Survey MPS 184150
2006 10 21.25339 01 43 57.90 +06 35 42.0 18.9 V 703 – Catalina Sky Survey MPS 184150
2006 10 21.26199 01 43 57.36 +06 35 39.8 19.0 V 703 – Catalina Sky Survey MPS 184150
2006 10 21.35192 01 43 52.32 +06 35 20.3 18.8 R 644 – Palomar Mountain/NEAT MPS 185540
2006 10 21.38052 01 43 50.68 +06 35 13.8 18.9 R 644 – Palomar Mountain/NEAT MPS 185540
2006 10 21.40210 01 43 49.47 +06 35 09.0 18.8 R 644 – Palomar Mountain/NEAT MPS 185540
2006 10 22.17167 01 43 08.56 +06 32 19.3 19.4 V 691 – Steward Observatory, Kitt Peak-Spacewatch MPS 184150
2006 10 22.18160 01 43 07.99 +06 32 17.4 19.3 V 691 – Steward Observatory, Kitt Peak-Spacewatch MPS 184150
2006 10 22.19154 01 43 07.42 +06 32 15.8 18.9 V 691 – Steward Observatory, Kitt Peak-Spacewatch MPS 184150
2006 10 31.19319 01 35 19.57 +06 03 15.9 19.0 V G96 – Mt. Lemmon Survey MPS 185540
2006 10 31.20082 01 35 19.17 +06 03 14.7 19.1 V G96 – Mt. Lemmon Survey MPS 185540
2006 10 31.20851 01 35 18.78 +06 03 13.6 19.1 V G96 – Mt. Lemmon Survey MPS 185540
2006 10 31.21623 01 35 18.38 +06 03 12.3 19.2 V G96 – Mt. Lemmon Survey MPS 185540
2006 11 09.18800 01 28 50.13 +05 45 25.6 19.7 R 644 – Palomar Mountain/NEAT MPS 190539
2006 11 09.20869 01 28 49.26 +05 45 24.1 18.9 R 644 – Palomar Mountain/NEAT MPS 190539
2006 11 09.22926 01 28 48.46 +05 45 22.8 19.4 R 644 – Palomar Mountain/NEAT MPS 190539
2006 11 16.21639 01 25 12.36 +05 41 31.6 19.7 V G96 – Mt. Lemmon Survey MPS 187064
2006 11 16.22304 01 25 12.18 +05 41 31.7 19.6 V G96 – Mt. Lemmon Survey MPS 187064
2006 11 16.22978 01 25 12.00 +05 41 31.8 19.7 V G96 – Mt. Lemmon Survey MPS 187064
2006 11 16.23648 01 25 11.82 +05 41 31.6 19.8 V G96 – Mt. Lemmon Survey MPS 187064
2007 01 08.16293 01 48 14.43 +09 56 09.4 20.9 V G96 – Mt. Lemmon Survey MPS 195553
2007 01 08.16740 01 48 14.72 +09 56 11.4 20.7 V G96 – Mt. Lemmon Survey MPS 195553
2007 01 08.17184 01 48 15.04 +09 56 13.2 21.1 V G96 – Mt. Lemmon Survey MPS 195553
2007 01 08.17629 01 48 15.33 +09 56 16.4 21.0 V G96 – Mt. Lemmon Survey MPS 195553
2007 01 10.15499 01 50 34.47 +10 12 36.1 20.8 V G96 – Mt. Lemmon Survey MPS 195553
2007 01 10.16071 01 50 34.87 +10 12 38.6 20.8 V G96 – Mt. Lemmon Survey MPS 195553
2007 01 10.16631 01 50 35.30 +10 12 41.7 20.5 V G96 – Mt. Lemmon Survey MPS 195553
2007 01 10.17196 01 50 35.66 +10 12 44.3 20.6 V G96 – Mt. Lemmon Survey MPS 195553
2008 04 05.27232 11 35 40.56 +06 34 06.6 20.3 V G96 – Mt. Lemmon Survey MPS 245783
2008 04 05.28125 11 35 40.20 +06 34 08.9 20.6 V G96 – Mt. Lemmon Survey MPS 245783
2008 04 05.29009 11 35 39.80 +06 34 11.0 20.5 V G96 – Mt. Lemmon Survey MPS 245783
2008 04 05.29895 11 35 39.33 +06 34 13.3 21.1 V G96 – Mt. Lemmon Survey MPS 245783
2010 11 02.42001 05 39 45.28 +22 21 06.8   691 – Steward Observatory, Kitt Peak-Spacewatch MPS 353815
2010 11 02.43774 05 39 45.04 +22 21 07.9   691 – Steward Observatory, Kitt Peak-Spacewatch MPS 353815
2010 11 02.45547 05 39 44.87 +22 21 09.1   691 – Steward Observatory, Kitt Peak-Spacewatch MPS 353815
2010 11 30.40455 05 22 04.29 +22 49 48.9 18.9 V G96 – Mt. Lemmon Survey MPS 358989
2010 11 30.41266 05 22 03.75 +22 49 49.1 18.9 V G96 – Mt. Lemmon Survey MPS 358989
2010 11 30.42072 05 22 03.25 +22 49 49.5 19.0 V G96 – Mt. Lemmon Survey MPS 358989
2010 12 02.32575 05 20 03.58 +22 51 13.2 20.0   704 – Lincoln Laboratory ETS, New Mexico MPS 358989
2010 12 02.33867 05 20 02.71 +22 51 12.5 19.9   704 – Lincoln Laboratory ETS, New Mexico MPS 358989
2010 12 02.35156 05 20 01.91 +22 51 13.2 19.8   704 – Lincoln Laboratory ETS, New Mexico MPS 358989
2010 12 02.36458 05 20 01.01 +22 51 14.0 19.9   704 – Lincoln Laboratory ETS, New Mexico MPS 358989
2010 12 02.37748 05 20 00.18 +22 51 14.3 19.9   704 – Lincoln Laboratory ETS, New Mexico MPS 358989
2010 12 02.96676 05 19 22.71 +22 51 36.5 19.3   A14 – Les Engarouines Observatory MPS 358989
2010 12 02.97431 05 19 22.21 +22 51 36.9 19.7   A14 – Les Engarouines Observatory MPS 358989
2010 12 02.98188 05 19 21.69 +22 51 37.1 19.4   A14 – Les Engarouines Observatory MPS 358989
2010 12 03.97656 05 18 17.44 +22 52 16.6 19.2   A14 – Les Engarouines Observatory MPS 358989
2010 12 03.98412 05 18 16.95 +22 52 16.5 19.4   A14 – Les Engarouines Observatory MPS 358989
2010 12 03.99169 05 18 16.39 +22 52 17.2 19.1   A14 – Les Engarouines Observatory MPS 358989
2010 12 07.35333 05 14 35.23 +22 54 14.8 19.4 V 703 – Catalina Sky Survey MPS 358989
